Time,TemperatureF,DewpointF,PressureIn,WindDirection,WindDirectionDegrees,WindSpeedMPH,WindSpeedGustMPH,Humidity,HourlyPrecipIn,Conditions,Clouds,dailyrainin,SoftwareType,DateUTC
2013-04-03 00:04:00,57.2,55.2,30.04,NNE,23,0.0,0.0,93,0.00,,,0.00,Wunderground v.1.15,2013-04-02 13:04:00,
2013-04-03 00:09:00,57.2,55.2,30.04,NNE,23,0.0,0.0,93,0.00,,,0.00,Wunderground v.1.15,2013-04-02 13:09:00,
2013-04-03 00:14:00,57.1,55.1,30.04,NNE,23,0.0,0.0,93,0.00,,,0.00,Wunderground v.1.15,2013-04-02 13:14:00,
2013-04-03 00:20:00,57.1,55.1,30.04,North,-999,0.0,0.0,93,0.00,,,-99.99,WeatherLink 5.9.3,2013-04-02 13:20:00,
2013-04-03 00:26:00,57.3,55.3,30.04,NNE,23,0.0,0.0,93,0.00,,,0.00,Wunderground v.1.15,2013-04-02 13:26:00,
2013-04-03 00:32:00,57.2,55.2,30.04,NNE,23,0.0,0.0,93,0.00,,,0.00,Wunderground v.1.15,2013-04-02 13:32:00,
2013-04-03 00:38:00,57.3,55.6,30.04,NNE,23,0.0,0.0,94,0.00,,,0.00,Wunderground v.1.15,2013-04-02 13:38:00,
2013-04-03 00:43:00,57.4,55.7,30.04,NNE,23,0.0,0.0,94,0.00,,,0.00,Wunderground v.1.15,2013-04-02 13:43:00,
2013-04-03 00:48:00,57.4,55.7,30.04,NNE,23,0.0,0.0,94,0.00,,,0.00,Wunderground v.1.15,2013-04-02 13:48:00,
2013-04-03 00:54:00,57.2,55.5,30.04,NNE,23,0.0,0.0,94,0.00,,,0.00,Wunderground v.1.15,2013-04-02 13:54:00,
2013-04-03 01:00:00,57.3,55.6,30.04,North,-999,0.0,0.0,94,0.00,,,-99.99,WeatherLink 5.9.3,2013-04-02 14:00:00,
2013-04-03 01:07:00,57.7,56.3,30.04,NNE,23,0.0,0.0,95,0.00,,,0.00,Wunderground v.1.15,2013-04-02 14:07:00,
2013-04-03 01:12:00,58.0,56.6,30.04,NNE,23,0.0,0.0,95,0.00,,,0.00,Wunderground v.1.15,2013-04-02 14:12:00,
2013-04-03 01:18:00,58.0,56.3,30.05,NNE,23,0.0,0.0,94,0.00,,,0.00,Wunderground v.1.15,2013-04-02 14:18:00,
2013-04-03 01:24:00,58.1,56.4,30.05,NNE,23,0.0,0.0,94,0.00,,,0.00,Wunderground v.1.15,2013-04-02 14:24:00,
2013-04-03 01:30:00,58.0,56.3,30.05,North,-999,0.0,0.0,94,0.00,,,-99.99,WeatherLink 5.9.3,2013-04-02 14:30:00,
2013-04-03 01:37:00,58.3,56.9,30.05,NNE,23,0.0,0.0,95,0.00,,,0.00,Wunderground v.1.15,2013-04-02 14:37:00,
2013-04-03 01:43:00,58.4,57.0,30.04,NNE,23,0.0,0.0,95,0.00,,,0.00,Wunderground v.1.15,2013-04-02 14:43:00,
2013-04-03 01:48:00,58.4,56.7,30.05,NNE,23,0.0,0.0,94,0.00,,,0.00,Wunderground v.1.15,2013-04-02 14:48:00,
2013-04-03 01:54:00,58.6,57.2,30.05,NNE,23,0.0,0.0,95,0.00,,,0.00,Wunderground v.1.15,2013-04-02 14:54:00,
2013-04-03 01:59:00,58.7,57.3,30.05,NNE,23,0.0,0.0,95,0.00,,,0.00,Wunderground v.1.15,2013-04-02 14:59:00,
2013-04-03 02:04:00,58.9,57.5,30.05,NNE,23,0.0,0.0,95,0.00,,,0.00,Wunderground v.1.15,2013-04-02 15:04:00,
2013-04-03 02:09:00,59.0,57.6,30.04,NNE,23,0.0,0.0,95,0.00,,,0.00,Wunderground v.1.15,2013-04-02 15:09:00,
2013-04-03 02:14:00,59.0,57.3,30.04,NNE,23,0.0,0.0,94,0.00,,,0.00,Wunderground v.1.15,2013-04-02 15:14:00,
2013-04-03 02:19:00,59.0,57.3,30.05,NNE,23,0.0,0.0,94,0.00,,,0.00,Wunderground v.1.15,2013-04-02 15:19:00,
2013-04-03 02:24:00,59.0,57.3,30.04,NNE,23,0.0,0.0,94,0.00,,,0.00,Wunderground v.1.15,2013-04-02 15:24:00,
2013-04-03 02:29:00,58.9,57.2,30.04,NNE,23,0.0,0.0,94,0.00,,,0.00,Wunderground v.1.15,2013-04-02 15:29:00,
2013-04-03 02:34:00,59.0,57.3,30.04,NNE,23,0.0,0.0,94,0.00,,,0.00,Wunderground v.1.15,2013-04-02 15:34:00,
2013-04-03 02:40:00,59.1,57.7,30.04,NNE,23,0.0,0.0,95,0.00,,,0.00,Wunderground v.1.15,2013-04-02 15:40:00,
2013-04-03 02:45:00,59.4,58.0,30.04,NNE,23,0.0,0.0,95,0.00,,,0.00,Wunderground v.1.15,2013-04-02 15:45:00,
2013-04-03 02:50:00,59.6,58.2,30.04,NNE,23,0.0,0.0,95,0.00,,,0.00,Wunderground v.1.15,2013-04-02 15:50:00,
2013-04-03 02:55:00,59.8,58.4,30.04,NNE,23,0.0,0.0,95,0.00,,,0.00,Wunderground v.1.15,2013-04-02 15:55:00,
2013-04-03 03:00:00,60.0,58.6,30.04,NNE,23,0.0,0.0,95,0.00,,,0.00,Wunderground v.1.15,2013-04-02 16:00:00,
2013-04-03 03:05:00,60.2,58.8,30.04,NNE,23,0.0,0.0,95,0.00,,,0.00,Wunderground v.1.15,2013-04-02 16:05:00,
2013-04-03 03:10:00,60.3,58.9,30.04,NNE,23,0.0,0.0,95,0.00,,,0.00,Wunderground v.1.15,2013-04-02 16:10:00,
2013-04-03 03:15:00,60.5,58.8,30.04,NNE,23,0.0,0.0,94,0.00,,,0.00,Wunderground v.1.15,2013-04-02 16:15:00,
2013-04-03 03:20:00,60.5,58.8,30.04,NNE,23,0.0,0.0,94,0.00,,,0.00,Wunderground v.1.15,2013-04-02 16:20:00,
2013-04-03 03:25:00,60.6,58.9,30.04,NNE,23,0.0,0.0,94,0.00,,,0.00,Wunderground v.1.15,2013-04-02 16:25:00,
2013-04-03 03:31:00,60.6,58.9,30.04,North,-999,0.0,0.0,94,0.00,,,-99.99,WeatherLink 5.9.3,2013-04-02 16:31:00,
2013-04-03 03:36:00,61.0,59.3,30.03,NNE,22,0.0,0.0,94,0.00,,,0.00,Wunderground v.1.15,2013-04-02 16:36:00,
2013-04-03 03:41:00,61.1,59.4,30.03,NNE,22,0.0,0.0,94,0.00,,,0.00,Wunderground v.1.15,2013-04-02 16:41:00,
2013-04-03 03:46:00,61.2,59.5,30.03,NNE,23,0.0,0.0,94,0.00,,,0.00,Wunderground v.1.15,2013-04-02 16:46:00,
2013-04-03 03:52:00,61.3,59.6,30.03,North,-999,0.0,0.0,94,0.00,,,-99.99,WeatherLink 5.9.3,2013-04-02 16:52:00,
2013-04-03 03:57:00,61.4,59.7,30.03,NNE,23,0.0,0.0,94,0.00,,,0.00,Wunderground v.1.15,2013-04-02 16:57:00,
2013-04-03 04:02:00,61.3,59.6,30.03,NNE,23,0.0,0.0,94,0.00,,,0.00,Wunderground v.1.15,2013-04-02 17:02:00,
2013-04-03 04:07:00,61.3,59.6,30.03,NNE,23,0.0,0.0,94,0.00,,,0.00,Wunderground v.1.15,2013-04-02 17:07:00,
2013-04-03 04:12:00,61.3,59.6,30.03,NNE,23,0.0,0.0,94,0.00,,,0.00,Wunderground v.1.15,2013-04-02 17:12:00,
2013-04-03 04:17:00,61.3,59.6,30.03,NNE,23,0.0,0.0,94,0.00,,,0.00,Wunderground v.1.15,2013-04-02 17:17:00,
2013-04-03 04:23:00,61.0,59.3,30.03,NNE,23,0.0,0.0,94,0.00,,,0.00,Wunderground v.1.15,2013-04-02 17:23:00,
2013-04-03 04:28:00,60.8,59.1,30.03,NNE,23,0.0,0.0,94,0.00,,,0.00,Wunderground v.1.15,2013-04-02 17:28:00,
2013-04-03 04:33:00,60.6,58.9,30.03,NNE,23,0.0,0.0,94,0.00,,,0.00,Wunderground v.1.15,2013-04-02 17:33:00,
2013-04-03 04:38:00,60.4,58.7,30.03,NNE,23,0.0,0.0,94,0.00,,,0.00,Wunderground v.1.15,2013-04-02 17:38:00,
2013-04-03 04:43:00,60.2,58.5,30.03,NNE,23,0.0,0.0,94,0.00,,,0.00,Wunderground v.1.15,2013-04-02 17:43:00,
2013-04-03 04:48:00,59.9,58.2,30.03,NNE,23,0.0,0.0,94,0.00,,,0.00,Wunderground v.1.15,2013-04-02 17:48:00,
2013-04-03 04:53:00,59.9,58.2,30.03,NNE,23,0.0,0.0,94,0.00,,,0.00,Wunderground v.1.15,2013-04-02 17:53:00,
2013-04-03 04:58:00,59.7,58.0,30.04,NNE,23,0.0,0.0,94,0.00,,,0.00,Wunderground v.1.15,2013-04-02 17:58:00,
2013-04-03 05:03:00,59.7,58.0,30.03,NNE,23,0.0,0.0,94,0.00,,,0.00,Wunderground v.1.15,2013-04-02 18:03:00,
2013-04-03 05:08:00,59.5,57.8,30.03,NNE,23,0.0,0.0,94,0.00,,,0.00,Wunderground v.1.15,2013-04-02 18:08:00,
2013-04-03 05:13:00,59.5,57.8,30.03,NNE,23,0.0,0.0,94,0.00,,,0.00,Wunderground v.1.15,2013-04-02 18:13:00,
2013-04-03 05:18:00,59.4,58.0,30.03,NNE,23,0.0,0.0,95,0.00,,,0.00,Wunderground v.1.15,2013-04-02 18:18:00,
2013-04-03 05:23:00,59.5,58.1,30.04,NNE,23,0.0,0.0,95,0.00,,,0.00,Wunderground v.1.15,2013-04-02 18:23:00,
2013-04-03 05:28:00,59.7,58.3,30.04,NNE,23,0.0,0.0,95,0.00,,,0.00,Wunderground v.1.15,2013-04-02 18:28:00,
2013-04-03 05:33:00,60.0,58.6,30.04,NNE,23,0.0,0.0,95,0.00,,,0.00,Wunderground v.1.15,2013-04-02 18:33:00,
2013-04-03 05:38:00,60.1,58.7,30.04,NNE,21,0.0,1.0,95,0.00,,,0.00,Wunderground v.1.15,2013-04-02 18:38:00,
2013-04-03 05:43:00,60.0,58.6,30.05,WNW,299,0.0,0.0,95,0.00,,,0.00,Wunderground v.1.15,2013-04-02 18:43:00,
2013-04-03 05:48:00,60.0,58.6,30.05,WNW,298,0.0,0.0,95,0.00,,,0.00,Wunderground v.1.15,2013-04-02 18:48:00,
2013-04-03 05:53:00,59.9,58.5,30.05,WNW,298,0.0,0.0,95,0.00,,,0.00,Wunderground v.1.15,2013-04-02 18:53:00,
2013-04-03 05:59:00,59.6,58.2,30.05,WNW,298,0.0,0.0,95,0.00,,,0.00,Wunderground v.1.15,2013-04-02 18:59:00,
2013-04-03 06:04:00,59.4,58.0,30.05,WNW,298,0.0,0.0,95,0.00,,,0.00,Wunderground v.1.15,2013-04-02 19:04:00,
2013-04-03 06:09:00,59.2,57.8,30.05,WNW,298,0.0,0.0,95,0.00,,,0.00,Wunderground v.1.15,2013-04-02 19:09:00,
2013-04-03 06:14:00,59.0,57.6,30.06,WNW,298,0.0,0.0,95,0.00,,,0.00,Wunderground v.1.15,2013-04-02 19:14:00,
2013-04-03 06:19:00,58.8,57.4,30.06,WNW,298,0.0,0.0,95,0.00,,,0.00,Wunderground v.1.15,2013-04-02 19:19:00,
2013-04-03 06:24:00,58.7,57.3,30.06,WNW,299,0.0,0.0,95,0.00,,,0.00,Wunderground v.1.15,2013-04-02 19:24:00,
2013-04-03 06:29:00,58.4,57.0,30.06,WNW,298,0.0,0.0,95,0.00,,,0.00,Wunderground v.1.15,2013-04-02 19:29:00,
2013-04-03 06:34:00,58.3,56.9,30.06,WNW,298,0.0,0.0,95,0.00,,,0.00,Wunderground v.1.15,2013-04-02 19:34:00,
2013-04-03 06:39:00,58.3,56.9,30.07,WNW,299,0.0,0.0,95,0.00,,,0.00,Wunderground v.1.15,2013-04-02 19:39:00,
2013-04-03 06:45:00,58.3,57.2,30.07,West,271,0.0,1.0,96,0.00,,,0.00,Wunderground v.1.15,2013-04-02 19:45:00,
2013-04-03 06:50:00,58.3,56.9,30.07,North,-999,0.0,0.0,95,0.00,,,-99.99,WeatherLink 5.9.3,2013-04-02 19:50:00,
2013-04-03 06:55:00,58.6,57.5,30.07,West,267,0.0,0.0,96,0.00,,,0.00,Wunderground v.1.15,2013-04-02 19:55:00,
2013-04-03 07:00:00,58.5,57.1,30.07,West,268,0.0,0.0,95,0.00,,,0.00,Wunderground v.1.15,2013-04-02 20:00:00,
2013-04-03 07:05:00,58.3,56.9,30.07,West,268,0.0,0.0,95,0.00,,,0.00,Wunderground v.1.15,2013-04-02 20:05:00,
2013-04-03 07:11:00,58.5,57.4,30.07,West,270,0.0,1.0,96,0.00,,,-99.99,WeatherLink 5.9.3,2013-04-02 20:11:00,
2013-04-03 07:16:00,58.4,57.3,30.07,West,267,0.0,0.0,96,0.00,,,0.00,Wunderground v.1.15,2013-04-02 20:16:00,
2013-04-03 07:21:00,58.3,57.2,30.08,West,268,0.0,0.0,96,0.00,,,0.00,Wunderground v.1.15,2013-04-02 20:21:00,
2013-04-03 07:26:00,58.1,56.7,30.08,West,268,0.0,0.0,95,0.00,,,0.00,Wunderground v.1.15,2013-04-02 20:26:00,
2013-04-03 07:31:00,58.3,57.2,30.07,North,-999,0.0,0.0,96,0.00,,,-99.99,WeatherLink 5.9.3,2013-04-02 20:31:00,
2013-04-03 07:36:00,58.1,57.0,30.08,West,266,0.0,0.0,96,0.00,,,0.00,Wunderground v.1.15,2013-04-02 20:36:00,
2013-04-03 07:41:00,57.9,56.8,30.08,North,-999,0.0,0.0,96,0.00,,,-99.99,WeatherLink 5.9.3,2013-04-02 20:41:00,
2013-04-03 07:46:00,60.7,59.8,30.08,West,268,0.0,0.0,97,0.00,,,0.00,Wunderground v.1.15,2013-04-02 20:46:00,
2013-04-03 07:51:00,59.3,58.4,30.08,North,-999,0.0,0.0,97,0.00,,,-99.99,WeatherLink 5.9.3,2013-04-02 20:51:00,
2013-04-03 07:56:00,61.6,60.7,30.08,West,266,0.0,0.0,97,0.00,,,0.00,Wunderground v.1.15,2013-04-02 20:56:00,
2013-04-03 08:01:00,62.0,61.1,30.09,West,267,0.0,0.0,97,0.00,,,0.00,Wunderground v.1.15,2013-04-02 21:01:00,
2013-04-03 08:06:00,62.8,61.6,30.09,West,266,0.0,0.0,96,0.00,,,0.00,Wunderground v.1.15,2013-04-02 21:06:00,
2013-04-03 08:11:00,63.4,61.3,30.09,West,266,0.0,0.0,93,0.00,,,0.00,Wunderground v.1.15,2013-04-02 21:11:00,
2013-04-03 08:17:00,64.3,61.6,30.09,West,266,0.0,0.0,91,0.00,,,0.00,Wunderground v.1.15,2013-04-02 21:17:00,
2013-04-03 08:22:00,65.6,61.3,30.09,SSE,164,0.0,0.0,86,0.00,,,0.00,Wunderground v.1.15,2013-04-02 21:22:00,
2013-04-03 08:27:00,66.1,61.1,30.10,SSE,160,0.0,1.0,84,0.00,,,0.00,Wunderground v.1.15,2013-04-02 21:27:00,
2013-04-03 08:32:00,66.2,61.2,30.10,SSE,161,0.0,0.0,84,0.00,,,0.00,Wunderground v.1.15,2013-04-02 21:32:00,
2013-04-03 08:37:00,66.3,61.7,30.10,SE,145,0.0,1.0,85,0.00,,,0.00,Wunderground v.1.15,2013-04-02 21:37:00,
2013-04-03 08:42:00,67.2,62.2,30.10,SSE,163,0.0,1.0,84,0.00,,,0.00,Wunderground v.1.15,2013-04-02 21:42:00,
2013-04-03 08:48:00,68.1,62.7,30.10,WSW,251,0.0,1.0,83,0.00,,,0.00,Wunderground v.1.15,2013-04-02 21:48:00,
2013-04-03 08:53:00,68.6,62.5,30.11,SSE,163,0.0,1.0,81,0.00,,,0.00,Wunderground v.1.15,2013-04-02 21:53:00,
2013-04-03 08:58:00,69.2,62.8,30.11,South,185,1.0,1.0,80,0.00,,,0.00,Wunderground v.1.15,2013-04-02 21:58:00,
2013-04-03 09:03:00,69.8,62.6,30.11,SSE,150,0.0,1.0,78,0.00,,,0.00,Wunderground v.1.15,2013-04-02 22:03:00,
2013-04-03 09:08:00,69.8,62.3,30.11,SW,224,1.0,2.0,77,0.00,,,0.00,Wunderground v.1.15,2013-04-02 22:08:00,
2013-04-03 09:13:00,69.6,62.1,30.11,SE,142,0.0,1.0,77,0.00,,,0.00,Wunderground v.1.15,2013-04-02 22:13:00,
2013-04-03 09:18:00,69.6,62.4,30.11,SSW,212,1.0,1.0,78,0.00,,,0.00,Wunderground v.1.15,2013-04-02 22:18:00,
2013-04-03 09:23:00,69.9,62.7,30.12,SSE,160,3.0,3.0,78,0.00,,,0.00,Wunderground v.1.15,2013-04-02 22:23:00,
2013-04-03 09:28:00,70.3,62.7,30.12,SSE,160,0.0,4.0,77,0.00,,,0.00,Wunderground v.1.15,2013-04-02 22:28:00,
2013-04-03 09:33:00,70.8,62.9,30.12,South,170,0.0,3.0,76,0.00,,,0.00,Wunderground v.1.15,2013-04-02 22:33:00,
2013-04-03 09:38:00,70.4,62.5,30.13,SE,136,0.0,3.0,76,0.00,,,0.00,Wunderground v.1.15,2013-04-02 22:38:00,
2013-04-03 09:43:00,71.1,63.5,30.13,SSW,205,2.0,4.0,77,0.00,,,0.00,Wunderground v.1.15,2013-04-02 22:43:00,
2013-04-03 09:49:00,72.5,63.7,30.13,NW,309,1.0,4.0,74,0.00,,,0.00,Wunderground v.1.15,2013-04-02 22:49:00,
2013-04-03 09:54:00,73.4,63.0,30.13,NW,311,3.0,4.0,70,0.00,,,0.00,Wunderground v.1.15,2013-04-02 22:54:00,
2013-04-03 09:59:00,72.7,62.3,30.14,WSW,248,1.0,5.0,70,0.00,,,0.00,Wunderground v.1.15,2013-04-02 22:59:00,
2013-04-03 10:04:00,72.0,62.1,30.14,SSE,147,2.0,5.0,71,0.00,,,0.00,Wunderground v.1.15,2013-04-02 23:04:00,
2013-04-03 10:09:00,71.3,62.2,30.14,SSW,192,0.0,5.0,73,0.00,,,0.00,Wunderground v.1.15,2013-04-02 23:09:00,
2013-04-03 10:14:00,71.6,62.9,30.14,South,185,2.0,4.0,74,0.00,,,0.00,Wunderground v.1.15,2013-04-02 23:14:00,
2013-04-03 10:19:00,72.3,62.8,30.14,South,184,3.0,6.0,72,0.00,,,0.00,Wunderground v.1.15,2013-04-02 23:19:00,
2013-04-03 10:24:00,72.4,62.9,30.14,South,188,1.0,7.0,72,0.00,,,0.00,Wunderground v.1.15,2013-04-02 23:24:00,
2013-04-03 10:29:00,71.9,62.0,30.14,SSE,157,3.0,7.0,71,0.00,,,0.00,Wunderground v.1.15,2013-04-02 23:29:00,
2013-04-03 10:34:00,72.2,63.1,30.15,SSW,205,3.0,4.0,73,0.00,,,0.00,Wunderground v.1.15,2013-04-02 23:34:00,
2013-04-03 10:39:00,72.5,63.0,30.15,NW,326,0.0,4.0,72,0.00,,,0.00,Wunderground v.1.15,2013-04-02 23:39:00,
2013-04-03 10:44:00,72.5,62.6,30.15,SE,126,0.0,4.0,71,0.00,,,0.00,Wunderground v.1.15,2013-04-02 23:44:00,
2013-04-03 10:49:00,71.8,61.5,30.15,South,191,2.0,5.0,70,0.00,,,0.00,Wunderground v.1.15,2013-04-02 23:49:00,
2013-04-03 10:54:00,70.8,61.3,30.15,SE,146,2.0,8.0,72,0.00,,,0.00,Wunderground v.1.15,2013-04-02 23:54:00,
2013-04-03 10:59:00,68.5,61.4,30.16,SE,143,2.0,8.0,78,0.00,,,0.00,Wunderground v.1.15,2013-04-02 23:59:00,
2013-04-03 11:04:00,67.2,61.5,30.16,SSE,147,4.0,6.0,82,0.00,,,0.00,Wunderground v.1.15,2013-04-03 00:04:00,
2013-04-03 11:09:00,66.6,61.6,30.16,NNE,30,1.0,6.0,84,0.00,,,0.00,Wunderground v.1.15,2013-04-03 00:09:00,
2013-04-03 11:14:00,66.6,61.6,30.16,SSE,165,2.0,4.0,84,0.00,,,0.00,Wunderground v.1.15,2013-04-03 00:14:00,
2013-04-03 11:20:00,66.9,61.6,30.16,South,178,1.0,4.0,83,0.00,,,0.00,Wunderground v.1.15,2013-04-03 00:20:00,
2013-04-03 11:25:00,67.2,61.9,30.16,ESE,110,4.0,4.0,83,0.00,,,0.00,Wunderground v.1.15,2013-04-03 00:25:00,
2013-04-03 11:30:00,66.6,61.6,30.16,South,180,3.0,5.0,84,0.00,,,-99.99,WeatherLink 5.9.3,2013-04-03 00:30:00,
2013-04-03 11:36:00,67.9,61.5,30.16,NW,305,3.0,7.0,80,0.00,,,0.00,Wunderground v.1.15,2013-04-03 00:36:00,
2013-04-03 11:41:00,68.0,60.9,30.16,SE,127,4.0,5.0,78,0.00,,,0.00,Wunderground v.1.15,2013-04-03 00:41:00,
2013-04-03 11:46:00,68.1,61.3,30.16,South,191,1.0,6.0,79,0.00,,,0.00,Wunderground v.1.15,2013-04-03 00:46:00,
2013-04-03 11:51:00,68.6,61.5,30.16,SSE,165,2.0,4.0,78,0.00,,,0.00,Wunderground v.1.15,2013-04-03 00:51:00,
2013-04-03 11:57:00,68.6,61.8,30.16,SW,220,2.0,9.0,79,0.00,,,0.00,Wunderground v.1.15,2013-04-03 00:57:00,
2013-04-03 12:02:00,68.0,62.3,30.16,South,169,2.0,7.0,82,0.00,,,0.00,Wunderground v.1.15,2013-04-03 01:02:00,
2013-04-03 12:07:00,67.1,61.4,30.16,SE,135,0.0,7.0,82,0.00,,,0.00,Wunderground v.1.15,2013-04-03 01:07:00,
2013-04-03 12:12:00,66.4,61.4,30.16,SSE,167,2.0,2.0,84,0.00,,,0.00,Wunderground v.1.15,2013-04-03 01:12:00,
2013-04-03 12:17:00,66.1,61.5,30.16,SSE,153,2.0,5.0,85,0.00,,,0.01,Wunderground v.1.15,2013-04-03 01:17:00,
2013-04-03 12:23:00,65.8,61.2,30.16,SSW,192,1.0,4.0,85,0.00,,,0.01,Wunderground v.1.15,2013-04-03 01:23:00,
2013-04-03 12:28:00,65.5,60.9,30.16,South,186,1.0,4.0,85,0.00,,,0.01,Wunderground v.1.15,2013-04-03 01:28:00,
2013-04-03 12:33:00,65.5,61.5,30.16,SSE,158,3.0,3.0,87,0.00,,,0.01,Wunderground v.1.15,2013-04-03 01:33:00,
2013-04-03 12:38:00,65.3,61.0,30.16,ENE,73,0.0,6.0,86,0.00,,,0.01,Wunderground v.1.15,2013-04-03 01:38:00,
2013-04-03 12:43:00,65.1,60.5,30.16,South,180,2.0,6.0,85,0.00,,,0.01,Wunderground v.1.15,2013-04-03 01:43:00,
2013-04-03 12:48:00,64.7,60.4,30.16,SSE,158,2.0,6.0,86,0.00,,,0.01,Wunderground v.1.15,2013-04-03 01:48:00,
2013-04-03 12:53:00,64.4,60.4,30.16,SSE,167,1.0,3.0,87,0.00,,,0.01,Wunderground v.1.15,2013-04-03 01:53:00,
2013-04-03 12:58:00,64.2,60.6,30.16,SSW,199,1.0,4.0,88,0.00,,,0.01,Wunderground v.1.15,2013-04-03 01:58:00,
2013-04-03 13:03:00,64.1,60.8,30.16,South,176,0.0,2.0,89,0.00,,,0.02,Wunderground v.1.15,2013-04-03 02:03:00,
2013-04-03 13:09:00,64.0,61.0,30.16,South,188,0.0,2.0,90,0.00,,,0.02,Wunderground v.1.15,2013-04-03 02:09:00,
2013-04-03 13:14:00,63.9,60.9,30.16,South,176,1.0,3.0,90,0.00,,,0.02,Wunderground v.1.15,2013-04-03 02:14:00,
2013-04-03 13:19:00,64.0,61.0,30.15,East,94,0.0,3.0,90,0.00,,,0.02,Wunderground v.1.15,2013-04-03 02:19:00,
2013-04-03 13:24:00,64.3,61.3,30.15,SE,130,2.0,3.0,90,0.00,,,0.02,Wunderground v.1.15,2013-04-03 02:24:00,
2013-04-03 13:29:00,64.6,61.6,30.15,SE,125,0.0,3.0,90,0.00,,,0.02,Wunderground v.1.15,2013-04-03 02:29:00,
2013-04-03 13:34:00,65.1,61.8,30.15,SSE,147,1.0,5.0,89,0.00,,,0.02,Wunderground v.1.15,2013-04-03 02:34:00,
2013-04-03 13:39:00,65.2,61.2,30.15,SE,131,2.0,5.0,87,0.00,,,0.02,Wunderground v.1.15,2013-04-03 02:39:00,
2013-04-03 13:45:00,65.4,61.1,30.15,SE,142,2.0,4.0,86,0.00,,,0.02,Wunderground v.1.15,2013-04-03 02:45:00,
2013-04-03 13:50:00,66.0,61.4,30.15,South,183,2.0,4.0,85,0.00,,,0.02,Wunderground v.1.15,2013-04-03 02:50:00,
2013-04-03 13:55:00,66.6,61.9,30.14,SSE,148,1.0,3.0,85,0.00,,,0.02,Wunderground v.1.15,2013-04-03 02:55:00,
2013-04-03 14:00:00,66.6,61.6,30.14,SSE,157,1.0,3.0,84,0.01,,,-99.99,WeatherLink 5.9.3,2013-04-03 03:00:00,
2013-04-03 14:05:00,66.6,61.3,30.14,SSE,157,3.0,4.0,83,0.00,,,0.02,Wunderground v.1.15,2013-04-03 03:05:00,
2013-04-03 14:12:00,65.9,60.9,30.14,ESE,122,1.0,4.0,84,0.00,,,0.02,Wunderground v.1.15,2013-04-03 03:12:00,
2013-04-03 14:17:00,65.4,61.1,30.14,East,87,1.0,4.0,86,0.00,,,0.02,Wunderground v.1.15,2013-04-03 03:17:00,
2013-04-03 14:22:00,65.5,61.5,30.14,South,181,1.0,2.0,87,0.00,,,0.02,Wunderground v.1.15,2013-04-03 03:22:00,
2013-04-03 14:27:00,65.7,61.1,30.14,WSW,238,2.0,3.0,85,0.00,,,0.02,Wunderground v.1.15,2013-04-03 03:27:00,
2013-04-03 14:32:00,65.8,61.2,30.14,South,183,3.0,3.0,85,0.00,,,0.02,Wunderground v.1.15,2013-04-03 03:32:00,
2013-04-03 14:37:00,65.4,61.1,30.14,SSW,211,3.0,5.0,86,0.00,,,0.02,Wunderground v.1.15,2013-04-03 03:37:00,
2013-04-03 14:42:00,64.8,60.8,30.14,South,174,3.0,3.0,87,0.00,,,0.02,Wunderground v.1.15,2013-04-03 03:42:00,
2013-04-03 14:47:00,64.5,60.9,30.14,South,180,2.0,4.0,88,0.00,,,0.02,Wunderground v.1.15,2013-04-03 03:47:00,
2013-04-03 14:52:00,64.5,60.5,30.15,SE,145,1.0,3.0,87,0.00,,,0.02,Wunderground v.1.15,2013-04-03 03:52:00,
2013-04-03 14:57:00,64.5,60.5,30.15,SSE,165,4.0,4.0,87,0.00,,,0.02,Wunderground v.1.15,2013-04-03 03:57:00,
2013-04-03 15:00:00,64.5,60.2,30.15,South,188,1.0,2.0,86,0.00,,,0.02,Wunderground v.1.15,2013-04-03 04:00:00,
2013-04-03 15:05:00,64.7,60.1,30.15,South,174,2.0,5.0,85,0.00,,,0.02,Wunderground v.1.15,2013-04-03 04:05:00,
2013-04-03 15:10:00,64.7,59.8,30.15,SSW,212,4.0,4.0,84,0.00,,,0.02,Wunderground v.1.15,2013-04-03 04:10:00,
2013-04-03 15:15:00,64.6,59.7,30.15,SSE,166,6.0,6.0,84,0.00,,,0.02,Wunderground v.1.15,2013-04-03 04:15:00,
2013-04-03 15:20:00,64.7,59.8,30.15,SSE,157,2.0,5.0,84,0.00,,,-99.99,WeatherLink 5.9.3,2013-04-03 04:20:00,
2013-04-03 15:25:00,64.6,59.7,30.15,South,175,2.0,10.0,84,0.00,,,0.02,Wunderground v.1.15,2013-04-03 04:25:00,
2013-04-03 15:30:00,64.6,60.0,30.15,SSE,157,1.0,8.0,85,0.00,,,-99.99,WeatherLink 5.9.3,2013-04-03 04:30:00,
2013-04-03 15:35:00,64.7,59.8,30.15,SSE,150,1.0,5.0,84,0.00,,,0.02,Wunderground v.1.15,2013-04-03 04:35:00,
2013-04-03 15:41:00,64.6,59.7,30.15,South,180,2.0,9.0,84,0.00,,,-99.99,WeatherLink 5.9.3,2013-04-03 04:41:00,
2013-04-03 15:46:00,64.8,59.5,30.16,SSE,155,1.0,3.0,83,0.00,,,0.02,Wunderground v.1.15,2013-04-03 04:46:00,
2013-04-03 15:51:00,64.7,59.4,30.15,South,180,2.0,4.0,83,0.00,,,-99.99,WeatherLink 5.9.3,2013-04-03 04:51:00,
2013-04-03 15:56:00,65.0,59.7,30.16,SSE,157,2.0,5.0,83,0.00,,,0.02,Wunderground v.1.15,2013-04-03 04:56:00,
2013-04-03 16:01:00,65.0,59.4,30.16,SSE,157,2.0,5.0,82,0.00,,,-99.99,WeatherLink 5.9.3,2013-04-03 05:01:00,
2013-04-03 16:07:00,65.1,59.5,30.16,ESE,115,0.0,3.0,82,0.00,,,0.02,Wunderground v.1.15,2013-04-03 05:07:00,
2013-04-03 16:12:00,65.1,59.1,30.16,SE,129,2.0,2.0,81,0.00,,,0.02,Wunderground v.1.15,2013-04-03 05:12:00,
2013-04-03 16:17:00,65.4,59.8,30.17,South,190,2.0,3.0,82,0.00,,,0.02,Wunderground v.1.15,2013-04-03 05:17:00,
2013-04-03 16:22:00,65.3,59.3,30.17,WSW,250,0.0,3.0,81,0.00,,,0.02,Wunderground v.1.15,2013-04-03 05:22:00,
2013-04-03 16:27:00,65.2,59.6,30.17,SSW,210,2.0,4.0,82,0.00,,,0.02,Wunderground v.1.15,2013-04-03 05:27:00,
2013-04-03 16:32:00,65.0,59.7,30.17,WNW,300,1.0,2.0,83,0.00,,,0.02,Wunderground v.1.15,2013-04-03 05:32:00,
2013-04-03 16:37:00,65.0,59.7,30.17,SE,129,0.0,2.0,83,0.00,,,0.02,Wunderground v.1.15,2013-04-03 05:37:00,
2013-04-03 16:42:00,65.1,59.8,30.17,SSE,149,0.0,2.0,83,0.00,,,0.02,Wunderground v.1.15,2013-04-03 05:42:00,
2013-04-03 16:48:00,65.3,60.0,30.17,SSE,164,0.0,2.0,83,0.00,,,0.02,Wunderground v.1.15,2013-04-03 05:48:00,
2013-04-03 16:53:00,65.6,60.3,30.17,SSW,196,2.0,2.0,83,0.00,,,0.02,Wunderground v.1.15,2013-04-03 05:53:00,
2013-04-03 16:58:00,65.8,60.2,30.17,SSW,212,0.0,2.0,82,0.00,,,0.02,Wunderground v.1.15,2013-04-03 05:58:00,
2013-04-03 17:03:00,65.8,59.8,30.17,South,174,2.0,3.0,81,0.00,,,0.02,Wunderground v.1.15,2013-04-03 06:03:00,
2013-04-03 17:08:00,65.7,59.4,30.17,SSE,154,2.0,7.0,80,0.00,,,0.02,Wunderground v.1.15,2013-04-03 06:08:00,
2013-04-03 17:13:00,65.7,59.4,30.18,SE,131,1.0,4.0,80,0.00,,,0.02,Wunderground v.1.15,2013-04-03 06:13:00,
2013-04-03 17:18:00,65.7,59.4,30.18,SSE,160,0.0,5.0,80,0.00,,,0.02,Wunderground v.1.15,2013-04-03 06:18:00,
2013-04-03 17:23:00,65.5,59.2,30.18,SE,133,1.0,6.0,80,0.00,,,0.02,Wunderground v.1.15,2013-04-03 06:23:00,
2013-04-03 17:28:00,65.5,59.2,30.18,SSE,158,1.0,6.0,80,0.00,,,0.02,Wunderground v.1.15,2013-04-03 06:28:00,
2013-04-03 17:33:00,65.4,59.1,30.18,South,176,3.0,4.0,80,0.00,,,0.02,Wunderground v.1.15,2013-04-03 06:33:00,
2013-04-03 17:38:00,65.3,59.0,30.18,SSE,153,1.0,4.0,80,0.00,,,0.02,Wunderground v.1.15,2013-04-03 06:38:00,
2013-04-03 17:43:00,65.2,58.9,30.18,South,183,0.0,2.0,80,0.00,,,0.02,Wunderground v.1.15,2013-04-03 06:43:00,
2013-04-03 17:48:00,65.2,59.2,30.18,South,172,0.0,2.0,81,0.00,,,0.02,Wunderground v.1.15,2013-04-03 06:48:00,
2013-04-03 17:53:00,65.2,59.2,30.18,South,184,0.0,1.0,81,0.00,,,0.02,Wunderground v.1.15,2013-04-03 06:53:00,
2013-04-03 17:58:00,65.2,59.2,30.18,SE,125,0.0,2.0,81,0.00,,,0.02,Wunderground v.1.15,2013-04-03 06:58:00,
2013-04-03 18:03:00,65.1,59.1,30.18,SE,125,0.0,1.0,81,0.00,,,0.02,Wunderground v.1.15,2013-04-03 07:03:00,
2013-04-03 18:08:00,65.0,58.7,30.18,South,172,0.0,2.0,80,0.00,,,0.02,Wunderground v.1.15,2013-04-03 07:08:00,
2013-04-03 18:14:00,64.8,58.8,30.18,South,181,0.0,2.0,81,0.00,,,0.02,Wunderground v.1.15,2013-04-03 07:14:00,
2013-04-03 18:19:00,64.7,58.7,30.18,SE,129,0.0,2.0,81,0.00,,,0.02,Wunderground v.1.15,2013-04-03 07:19:00,
2013-04-03 18:24:00,64.6,59.0,30.18,SSW,193,0.0,1.0,82,0.00,,,0.02,Wunderground v.1.15,2013-04-03 07:24:00,
2013-04-03 18:29:00,64.5,58.9,30.18,SSW,195,0.0,3.0,82,0.00,,,0.02,Wunderground v.1.15,2013-04-03 07:29:00,
2013-04-03 18:34:00,64.4,58.8,30.18,South,175,0.0,4.0,82,0.00,,,0.02,Wunderground v.1.15,2013-04-03 07:34:00,
2013-04-03 18:39:00,64.3,58.7,30.19,South,180,1.0,4.0,82,0.00,,,0.02,Wunderground v.1.15,2013-04-03 07:39:00,
2013-04-03 18:44:00,64.2,58.6,30.19,SE,137,0.0,0.0,82,0.00,,,0.02,Wunderground v.1.15,2013-04-03 07:44:00,
2013-04-03 18:49:00,64.1,58.5,30.19,West,262,0.0,3.0,82,0.00,,,0.02,Wunderground v.1.15,2013-04-03 07:49:00,
2013-04-03 18:54:00,64.0,58.4,30.19,SW,229,1.0,2.0,82,0.00,,,0.02,Wunderground v.1.15,2013-04-03 07:54:00,
2013-04-03 18:59:00,63.8,58.5,30.19,SW,221,0.0,2.0,83,0.00,,,0.02,Wunderground v.1.15,2013-04-03 07:59:00,
2013-04-03 19:04:00,63.7,58.4,30.20,SSE,160,1.0,1.0,83,0.00,,,0.02,Wunderground v.1.15,2013-04-03 08:04:00,
2013-04-03 19:09:00,63.6,58.3,30.20,SE,145,0.0,2.0,83,0.00,,,0.02,Wunderground v.1.15,2013-04-03 08:09:00,
2013-04-03 19:14:00,63.5,58.6,30.20,South,180,0.0,2.0,84,0.00,,,0.02,Wunderground v.1.15,2013-04-03 08:14:00,
2013-04-03 19:19:00,63.4,58.5,30.20,South,188,0.0,2.0,84,0.00,,,0.02,Wunderground v.1.15,2013-04-03 08:19:00,
2013-04-03 19:24:00,63.3,58.7,30.20,South,188,0.0,1.0,85,0.00,,,0.02,Wunderground v.1.15,2013-04-03 08:24:00,
2013-04-03 19:29:00,63.2,58.6,30.21,SSW,193,0.0,3.0,85,0.00,,,0.02,Wunderground v.1.15,2013-04-03 08:29:00,
2013-04-03 19:34:00,63.2,58.6,30.21,WNW,284,0.0,1.0,85,0.00,,,0.02,Wunderground v.1.15,2013-04-03 08:34:00,
2013-04-03 19:39:00,63.1,58.8,30.21,SSE,157,0.0,1.0,86,0.00,,,0.02,Wunderground v.1.15,2013-04-03 08:39:00,
2013-04-03 19:44:00,63.0,58.7,30.21,South,176,1.0,3.0,86,0.00,,,0.02,Wunderground v.1.15,2013-04-03 08:44:00,
2013-04-03 19:49:00,63.0,58.7,30.21,SE,131,0.0,3.0,86,0.00,,,0.02,Wunderground v.1.15,2013-04-03 08:49:00,
2013-04-03 19:54:00,62.9,58.6,30.22,WNW,302,0.0,3.0,86,0.00,,,0.02,Wunderground v.1.15,2013-04-03 08:54:00,
2013-04-03 19:59:00,62.9,58.6,30.22,SSE,167,0.0,3.0,86,0.00,,,0.02,Wunderground v.1.15,2013-04-03 08:59:00,
2013-04-03 20:04:00,62.8,58.5,30.22,ESE,110,0.0,3.0,86,0.00,,,0.02,Wunderground v.1.15,2013-04-03 09:04:00,
2013-04-03 20:09:00,62.8,58.5,30.22,WNW,285,0.0,3.0,86,0.00,,,0.02,Wunderground v.1.15,2013-04-03 09:09:00,
2013-04-03 20:14:00,62.8,58.5,30.22,SSW,202,0.0,2.0,86,0.00,,,0.02,Wunderground v.1.15,2013-04-03 09:14:00,
2013-04-03 20:19:00,62.8,58.5,30.22,WNW,289,0.0,3.0,86,0.00,,,0.02,Wunderground v.1.15,2013-04-03 09:19:00,
2013-04-03 20:24:00,62.8,58.5,30.22,South,176,0.0,1.0,86,0.00,,,0.02,Wunderground v.1.15,2013-04-03 09:24:00,
2013-04-03 20:30:00,62.8,58.5,30.23,South,181,0.0,2.0,86,0.00,,,0.02,Wunderground v.1.15,2013-04-03 09:30:00,
2013-04-03 20:35:00,62.7,58.5,30.23,South,181,0.0,0.0,86,0.00,,,0.02,Wunderground v.1.15,2013-04-03 09:35:00,
2013-04-03 20:40:00,62.7,58.5,30.23,SE,126,0.0,1.0,86,0.00,,,0.02,Wunderground v.1.15,2013-04-03 09:40:00,
2013-04-03 20:45:00,62.6,58.4,30.23,SSE,157,0.0,0.0,86,0.00,,,0.02,Wunderground v.1.15,2013-04-03 09:45:00,
2013-04-03 20:50:00,62.6,58.4,30.23,SSE,157,0.0,0.0,86,0.00,,,0.02,Wunderground v.1.15,2013-04-03 09:50:00,
2013-04-03 20:55:00,62.6,58.4,30.23,SE,136,0.0,0.0,86,0.00,,,0.02,Wunderground v.1.15,2013-04-03 09:55:00,
2013-04-03 21:00:00,62.5,58.3,30.23,SE,136,0.0,0.0,86,0.00,,,0.02,Wunderground v.1.15,2013-04-03 10:00:00,
2013-04-03 21:05:00,62.5,58.3,30.24,SE,136,0.0,0.0,86,0.00,,,0.02,Wunderground v.1.15,2013-04-03 10:05:00,
2013-04-03 21:10:00,62.4,58.2,30.24,SE,136,0.0,0.0,86,0.00,,,0.02,Wunderground v.1.15,2013-04-03 10:10:00,
2013-04-03 21:15:00,62.4,58.2,30.24,SE,136,0.0,0.0,86,0.00,,,0.02,Wunderground v.1.15,2013-04-03 10:15:00,
2013-04-03 21:20:00,62.3,58.4,30.23,SE,136,0.0,0.0,87,0.00,,,0.02,Wunderground v.1.15,2013-04-03 10:20:00,
2013-04-03 21:25:00,62.2,58.3,30.24,SE,136,0.0,0.0,87,0.00,,,0.02,Wunderground v.1.15,2013-04-03 10:25:00,
2013-04-03 21:30:00,61.9,58.0,30.24,SE,136,0.0,0.0,87,0.00,,,0.02,Wunderground v.1.15,2013-04-03 10:30:00,
2013-04-03 21:35:00,61.8,58.2,30.24,SE,136,0.0,0.0,88,0.00,,,0.02,Wunderground v.1.15,2013-04-03 10:35:00,
2013-04-03 21:40:00,61.8,58.2,30.24,North,-999,0.0,0.0,88,0.00,,,-99.99,WeatherLink 5.9.3,2013-04-03 10:40:00,
2013-04-03 21:45:00,61.8,58.5,30.24,West,280,0.0,1.0,89,0.00,,,0.02,Wunderground v.1.15,2013-04-03 10:45:00,
2013-04-03 21:50:00,61.7,58.4,30.24,North,-999,0.0,0.0,89,0.00,,,-99.99,WeatherLink 5.9.3,2013-04-03 10:50:00,
2013-04-03 21:55:00,61.8,58.5,30.24,West,280,0.0,0.0,89,0.00,,,0.02,Wunderground v.1.15,2013-04-03 10:55:00,
2013-04-03 22:01:00,61.8,58.2,30.24,West,270,0.0,1.0,88,0.00,,,-99.99,WeatherLink 5.9.3,2013-04-03 11:01:00,
2013-04-03 22:06:00,61.6,58.3,30.24,West,281,0.0,1.0,89,0.00,,,0.02,Wunderground v.1.15,2013-04-03 11:06:00,
2013-04-03 22:11:00,61.5,58.2,30.24,West,281,0.0,0.0,89,0.00,,,0.02,Wunderground v.1.15,2013-04-03 11:11:00,
2013-04-03 22:16:00,61.3,58.0,30.24,West,281,0.0,0.0,89,0.00,,,0.02,Wunderground v.1.15,2013-04-03 11:16:00,
2013-04-03 22:21:00,61.2,57.9,30.24,West,280,0.0,0.0,89,0.00,,,0.02,Wunderground v.1.15,2013-04-03 11:21:00,
2013-04-03 22:26:00,60.9,57.6,30.24,West,280,0.0,0.0,89,0.00,,,0.02,Wunderground v.1.15,2013-04-03 11:26:00,
2013-04-03 22:31:00,60.6,57.3,30.24,West,280,0.0,0.0,89,0.00,,,0.02,Wunderground v.1.15,2013-04-03 11:31:00,
2013-04-03 22:36:00,60.2,56.9,30.24,West,280,0.0,0.0,89,0.00,,,0.02,Wunderground v.1.15,2013-04-03 11:36:00,
2013-04-03 22:41:00,59.9,57.0,30.24,West,280,0.0,0.0,90,0.00,,,0.02,Wunderground v.1.15,2013-04-03 11:41:00,
2013-04-03 22:46:00,59.7,56.8,30.25,West,280,0.0,0.0,90,0.00,,,0.02,Wunderground v.1.15,2013-04-03 11:46:00,
2013-04-03 22:51:00,59.9,57.0,30.24,West,270,0.0,1.0,90,0.00,,,-99.99,WeatherLink 5.9.3,2013-04-03 11:51:00,
2013-04-03 22:56:00,59.3,56.7,30.24,South,180,0.0,0.0,91,0.00,,,0.02,Wunderground v.1.15,2013-04-03 11:56:00,
2013-04-03 23:01:00,59.0,56.4,30.24,South,179,0.0,0.0,91,0.00,,,0.02,Wunderground v.1.15,2013-04-03 12:01:00,
2013-04-03 23:06:00,58.8,56.5,30.24,South,180,0.0,0.0,92,0.00,,,0.02,Wunderground v.1.15,2013-04-03 12:06:00,
2013-04-03 23:11:00,58.6,56.3,30.24,South,180,0.0,0.0,92,0.00,,,0.02,Wunderground v.1.15,2013-04-03 12:11:00,
2013-04-03 23:16:00,58.3,56.0,30.24,South,180,0.0,0.0,92,0.00,,,0.02,Wunderground v.1.15,2013-04-03 12:16:00,
2013-04-03 23:21:00,58.1,55.8,30.25,South,180,0.0,0.0,92,0.00,,,0.02,Wunderground v.1.15,2013-04-03 12:21:00,
2013-04-03 23:26:00,58.1,56.1,30.25,South,179,0.0,0.0,93,0.00,,,0.02,Wunderground v.1.15,2013-04-03 12:26:00,
2013-04-03 23:31:00,58.0,56.0,30.25,South,180,0.0,0.0,93,0.00,,,0.02,Wunderground v.1.15,2013-04-03 12:31:00,
2013-04-03 23:36:00,57.8,55.8,30.25,South,180,0.0,0.0,93,0.00,,,0.02,Wunderground v.1.15,2013-04-03 12:36:00,
2013-04-03 23:41:00,57.8,55.8,30.24,South,180,0.0,1.0,93,0.00,,,-99.99,WeatherLink 5.9.3,2013-04-03 12:41:00,
2013-04-03 23:46:00,58.0,56.0,30.25,WNW,303,0.0,1.0,93,0.00,,,0.02,Wunderground v.1.15,2013-04-03 12:46:00,
2013-04-03 23:52:00,58.0,56.3,30.25,WNW,287,0.0,0.0,94,0.00,,,0.02,Wunderground v.1.15,2013-04-03 12:52:00,
2013-04-03 23:57:00,58.2,56.5,30.25,SSW,213,0.0,4.0,94,0.00,,,0.02,Wunderground v.1.15,2013-04-03 12:57:00,